{"data":{"norad_id":59272,"intl_designator":"2024-050U","name":"STARLINK-31623","alt_names":[],"object_type":"PAYLOAD","status":"ACTIVE","operator":null,"country":"US","launch_date":"2024-03-19","launch_site_code":"AFWTR","launch_vehicle":null,"mission":null,"orbit_class":"UNKNOWN","rcs_meters":null,"size_class":null,"mass_kg":null,"dimensions":null,"purposes":["comms"],"wikipedia_slug":null,"has_3d_model":false,"image_url":null,"decayed_at":null,"tle_current":{"epoch":"2026-09-21T16:05:40.672032Z","epoch_age_seconds":61110,"freshness":"FRESH","line1":"1 59272U 24050U   26264.67060963  .00001789  00000+0  64091-4 0  9991","line2":"2 59272  53.1631 347.8886 0001164  74.7158 285.3973 15.34391181140596","mean_motion":15.34391181,"eccentricity":0.0001164,"inclination_deg":53.1631,"raan_deg":347.8886,"arg_perigee_deg":74.7158,"mean_anomaly_deg":285.3973,"bstar":6.4091e-5,"rev_number":14059,"period_min":93.848297476626,"perigee_km":461.93317540413,"apogee_km":463.52572911421,"semimajor_km":6840.8664522592,"source":"CELESTRAK","updated_at":"2026-09-22T09:00:48.874129Z"}}}